Regional Weather Roundup
Issued by NWS

Home | Current Version | Previous Version | Graphics & Text | Print | Product List | Glossary Off
Versions: 1 2 3 4 5 6 7 8 9 10 11 12 13 14 15 16 17 18 19 20 21 22 23 24 25 26 27 28 29 30 31 32 33 34 35 36 37 38 39 40 41 42 43 44 45 46 47 48 49 50

000
ASUS43 KDTX 100910
RWRMI
MICHIGAN HOURLY REGIONAL WEATHER ROUNDUP
NATIONAL WEATHER SERVICE DETROIT/PONTIAC MI
500 AM EDT THU JUL 10 2014

NOTE: "FAIR" INDICATES FEW OR NO CLOUDS BELOW 12,000 FEET WITH NO
SIGNIFICANT WEATHER AND/OR OBSTRUCTION TO VISIBILITY.

MIZ047>049-052>055-059>063-066>070-074>076-081>083-101000-
SOUTHEAST LOWER MICHIGAN

CITY           SKY/WX    TMP DP  RH WIND       PRES   REMARKS
ADRIAN         CLEAR     58  54  86 N6        30.08R
ALMA           CLEAR     53  51  90 N3        30.11R
ANN ARBOR      MOCLDY    55  52  89 N3        30.07R
BAD AXE        CLOUDY    55  54  97 CALM      30.10R
CARO           CLEAR     57  57 100 N5        30.08S
DETROIT CITY   MOCLDY    64  55  72 N3        30.06S
DETROIT        MOCLDY    60  57  89 NW3       30.07R
FLINT          MOCLDY    58  54  86 NW3       30.08R
GROSSE ILE     CLEAR     61  57  88 CALM      30.05S
HILLSDALE      CLEAR     55  55  99 CALM      30.09S
HOWELL         CLEAR     54  53  96 CALM      30.08S

CITY           SKY/WX    TMP DP  RH WIND       PRES   REMARKS
JACKSON        CLEAR     54  52  93 CALM      30.09R
LAMBERTVILLE   CLEAR     57  54  88 CALM      30.07S
LANSING        CLEAR     54  51  90 NW5       30.10R
LAPEER         FAIR      55  54  95 CALM      30.08R
MASON          CLEAR     55  52  91 CALM      30.09R
MONROE         CLEAR     55  54  94 CALM      30.05R
MT. CLEMENS    CLEAR     57  55  94 W2        30.05S
PONTIAC        CLEAR     57  54  89 CALM      30.07R
PORT HOPE        N/A     55  53  93 W5        30.08R
PORT HURON     FOG       52  52 100 CALM      30.07S VSB 3/4
TRI CITIES     MOCLDY    58  52  80 N9        30.11R
TROY           CLEAR     60  55  83 CALM      30.07S
SAGINAW HB     PTCLDY    59  57  94 N6        30.09R
$$
MIZ043>046-050>051-056>058-064>065-071>073-077>080-101000-
SOUTHWEST LOWER MICHIGAN

CITY           SKY/WX    TMP DP  RH WIND       PRES   REMARKS
BATTLE CREEK   CLEAR     56  52  86 CALM      30.11R
BENTON HARBOR  CLEAR     53  52  96 CALM      30.10S
BIG RAPIDS     CLEAR     49  49 100 NW3       30.12R
COLDWATER      CLEAR     56  54  94 CALM      30.10R
FREMONT        FAIR      50  50 100 NW5       30.12R
HOLLAND        CLEAR     54  52  93 CALM      30.12R
GRAND RAPIDS   CLEAR     56  53  90 N3        30.12R
IONIA          FAIR      55  52  89 N3        30.10R
KALAMAZOO      CLEAR     54  51  90 CALM      30.11R
LUDINGTON      CLEAR     49  48  97 CALM      30.13R FOG
MARSHALL       CLEAR     51  51  97 CALM      30.09S
MOUNT PLEASANT CLEAR     52  51  97 CALM      30.11R
MUSKEGON       CLEAR     56  52  86 CALM      30.13R
SOUTH HAVEN    CLEAR     53  53 100 CALM      30.11R
$$
MIZ016>042-101000-
NORTHERN LOWER MICHIGAN

CITY           SKY/WX    TMP DP  RH WIND       PRES   REMARKS
ALPENA         MOCLDY    50  48  93 W5        30.11R
BEAVER ISLAND  CLEAR     41  41 100 CALM      30.12R
BELLAIRE       FOG       44  42  95 CALM      30.12S VSB 3/4
CADILLAC         N/A     40  40  98 CALM      30.11S
CHARLEVOIX     CLEAR     47  46  97 CALM      30.14S
FRANKFORT      CLEAR     46  43  89 CALM      30.12R
GAYLORD        CLEAR     41  40  96 CALM      30.12R
GRAYLING       FOG       39  39 100 CALM      30.13R VSB 3/4
HARBOR SPRINGS CLEAR     46  46  97 CALM      30.11R
HOUGHTON LAKE  FOG       42  42 100 CALM      30.12R VSB 1/2
MANISTEE       CLOUDY    46  43  87 CALM      30.13R VSB 3/4
OSCODA         PTCLDY    49  47  94 CALM      30.10S
PELLSTON       CLEAR     40  39  97 CALM      30.11S
ROGERS CITY    MOCLDY    49  48  99 W5        30.12R
TRAVERSE CITY  CLEAR     49  46  90 CALM      30.11R
$$
MIZ007>008-015-101000-
EASTERN UPPER MICHIGAN

CITY           SKY/WX    TMP DP  RH WIND       PRES   REMARKS
KINROSS        PTCLDY    45  45 100 W3        30.10R
MACKINAC ISLAN CLEAR     48  47  96 W6        30.10R
NEWBERRY       CLEAR     40  39  97 SW3       30.10S
S. S. MARIE    PTCLDY    45  42  89 CALM      30.09R
MUNISING         N/A     47  42  83 S8        30.09R
$$
MIZ004>006-011>014-085-101000-
CENTRAL UPPER MICHIGAN

CITY           SKY/WX    TMP DP  RH WIND       PRES   REMARKS
MANISTIQUE     CLEAR     41  40  97 CALM      30.10S
ESCANABA       CLEAR     45  43  93 W3        30.10R
MENOMINEE      CLEAR     48  46  93 CALM      30.10R
SAWYER-GWINN   CLEAR     44  41  90 CALM      30.10R
$$
MIZ001>003-009>011-084-101000-
WESTERN UPPER MICHIGAN

CITY           SKY/WX    TMP DP  RH WIND       PRES   REMARKS
IRON MOUNTAIN  CLEAR     42  40  92 CALM      30.10R FOG
HOUGHTON       PTCLDY    45  41  86 CALM      30.06S
COPPER HARBOR    N/A     54  45  71 SW5       30.05S
$$

ABBREVIATIONS USED IN REMARKS
   TC - TEMPERATURE IN CELSIUS
  WCI - WIND CHILL INDEX
   HX - HEAT INDEX
  VSB - VISIBILITY




USA.gov is the U.S. government's official web portal to all federal, state and local government web resources and services.